User: anonymous   Login
Location: Unspecified
(0.0000°N, 0.0000°E)
Time: 15:47:45
(UTC+00:00)
Language:

CAPE 1 - Orbit

View from above orbital plane
View from above orbital plane
View from above satellite
View from above satellite

Ground track
Ground track

The orbit data is extracted from the following two-line orbital elements,

1 31130U 07012P   19078.26025982 +.00000157 +00000-0 +43733-4 0  9994
2 31130 098.1551 020.3420 0096523 012.4937 347.8621 14.56392601632415
Epoch (UTC): 19 March 2019 06:14:46
Eccentricity: 0.0096523
inclination: 98.1551°
perigee height: 636 km
apogee height: 773 km
right ascension of ascending node: 20.3420°
argument of perigee: 12.4937°
revolutions per day: 14.56392601
mean anomaly at epoch: 347.8621°
orbit number at epoch: 63241

The dashed part of the orbit path shows where the satellite is in the earth's shadow,  

DLR